Weather in Sapernoye

Russia / Saint-Petersburg and Leningrad Oblast     60°42′40″N   29°57′44″E
temp.,
°C
wind,
m/s
gust,
m/s
humid.,
%
clouds,
%
prec.,
mm/h
press.,
hPa
HPBL,
m
21 october, thu
thu2100:00+10sw41397100 8.6 978717
03:00+10wsw71694100 17.3 979970
06:00+11wsw71595100 1.3 979868
09:00+11wsw71584100 1.4 980898
12:00+11wsw7167812 0.1 9821476
15:00+11wsw615797 0.1 9821367
18:00+9s2794100 0.0 981176
21:00+10sse41195100 0.6 978454
22 october, fri
fri2200:00+11s41193100 8.9 972809
03:00+10sw71583100 13.9 9711300
06:00+8sw91876100 0.2 9721456
09:00+6ssw91683100 0.3 9711490
12:00+5sw91894100 4.8 9701603
15:00+5wsw102089100 10.5 9741639
18:00+5wsw91983100 3.6 9771556
21:00+5wsw81588100 4.7 9801375
23 october, sat
sat2300:00+4wsw61296100 1.4 9831046
03:00+3wnw41193100 2.5 986767
06:00+3w2587100 0.1 988505
09:00+2wnw2596100 0.1 991313
12:00+3nw2698100 0.3 995527
15:00+3n4997100 0.6 999616
18:00+2n51197100 0.9 1003725
21:00+1n51197100 1.4 1007671
24 october, sun
sun2400:00+1nnw4984100 0.3 1010757
03:000nnw4985100 0.3 1013648
06:00−1nnw4108438 0.0 1016643
09:00−1nnw410835 0.0 1019664
12:00+1nnw47715 0.0 1022933
15:00+2nnw36675 0.0 1024877
18:00−1nw2583100 0.0 102690
21:00−1wnw128498 0.0 102749
25 october, mon
mon2500:00−1sw238361 0.0 102777
03:00−1ssw3979100 0.0 1027260
06:00+1ssw41275100 0.0 1025562
09:00+1ssw51595100 1.1 1023740
12:00+3ssw61587100 0.1 1022721
15:00+5sw61491100 0.1 1020977
18:00+6sw61487100 0.0 1019822
21:00+5sw61483100 0.0 1018743